Weather History for O'Neill, NE

Change the Weather History Date:

Saturday, October 12, 2013

  Actual Average Record
Temperature  
Mean Temperature 50 °F -  
Max Temperature 61 °F 65 °F 87 °F (1956)
Min Temperature 39 °F 38 °F 23 °F (1977)
Degree Days  
Heating Degree Days 14    
Moisture  
Dew Point 29 °F    
Average Humidity 46    
Maximum Humidity 76    
Minimum Humidity 22    
Precipitation  
Precipitation 0.00 in - - ()
Sea Level Pressure  
Sea Level Pressure 30.12 in    
Wind  
Wind Speed 12 mph (WNW)    
Max Wind Speed 22 mph    
Max Gust Speed 28 mph    
Visibility 10 miles    
Events      
Averages and records for this station are not official NWS values.
T = Trace of Precipitation, MM = Missing Value Source: NWS Daily Summary

Daily Weather History Graph

Daily Weather History Graph

Search for Another Location

Airport:

Trip Planner

Search our weather history database for the weather conditions in past years. The results will help you decide how hot, cold, wet, or windy it might be!

Date:

Astronomy

Oct. 12, 2013 Rise Set
Actual Time 7:44 AM CDT 6:57 PM CDT
Civil Twilight 7:16 AM CDT 7:25 PM CDT
Nautical Twilight 6:43 AM CDT 7:57 PM CDT
Astronomical Twilight 6:11 AM CDT 8:30 PM CDT
Moon 3:14 PM CDT 12:42 AM CDT
Length of Visible Light 12h 08m
Length of Day
11h 12m
First Quarter, 59% of the Moon is Illuminated
Oct 12
First Quarter
Oct 18
Full
Oct 26
Last Quarter
Nov 3
New
Nov 9
First Quarter

Hourly Weather History & Observations

Time (CDT) Temp. Windchill Dew Point Humidity Pressure Visibility Wind Dir Wind Speed Gust Speed Precip Events Conditions
12:15 AM 51.8 °F - 34.9 °F 53% 29.93 in 10.0 mi West 13.8 mph 19.6 mph N/A   Clear
12:35 AM 51.1 °F - 35.1 °F 54% 29.93 in 10.0 mi West 13.8 mph 20.7 mph N/A   Clear
12:55 AM 50.2 °F - 35.2 °F 57% 29.94 in 10.0 mi West 12.7 mph 21.9 mph N/A   Clear
1:15 AM 49.1 °F - 35.1 °F 58% 29.95 in 10.0 mi West 10.4 mph - N/A   Clear
1:35 AM 48.2 °F - 35.6 °F 62% 29.95 in 10.0 mi West 10.4 mph - N/A   Clear
1:55 AM 47.5 °F - 35.1 °F 62% 29.95 in 10.0 mi West 10.4 mph 16.1 mph N/A   Clear
2:15 AM 46.6 °F - 35.1 °F 64% 29.96 in 10.0 mi West 10.4 mph - N/A   Clear
2:35 AM 45.7 °F 41.0 °F 35.1 °F 66% 29.97 in 10.0 mi West 9.2 mph - N/A   Clear
2:55 AM 44.6 °F 39.7 °F 34.9 °F 69% 29.98 in 10.0 mi West 9.2 mph - N/A   Clear
3:15 AM 44.1 °F 39.0 °F 34.7 °F 70% 29.98 in 10.0 mi West 9.2 mph - N/A   Clear
3:35 AM 43.9 °F 39.3 °F 34.7 °F 70% 29.98 in 10.0 mi West 8.1 mph - N/A   Clear
3:55 AM 44.8 °F 38.7 °F 34.0 °F 66% 29.99 in 10.0 mi West 12.7 mph 17.3 mph N/A   Clear
4:15 AM 45.5 °F 39.9 °F 33.3 °F 62% 30.00 in 10.0 mi West 11.5 mph 18.4 mph N/A   Clear
4:35 AM 45.5 °F 39.2 °F 32.9 °F 61% 30.01 in 10.0 mi West 13.8 mph 17.3 mph N/A   Clear
4:55 AM 45.1 °F 39.5 °F 32.5 °F 61% 30.02 in 10.0 mi West 11.5 mph - N/A   Clear
5:15 AM 44.6 °F 39.7 °F 32.4 °F 62% 30.02 in 10.0 mi West 9.2 mph - N/A   Clear
5:35 AM 44.4 °F 39.0 °F 32.2 °F 62% 30.04 in 10.0 mi West 10.4 mph - N/A   Clear
5:55 AM 44.8 °F 39.4 °F 32.2 °F 61% 30.05 in 10.0 mi West 10.4 mph - N/A   Clear
6:15 AM 44.4 °F 38.6 °F 32.0 °F 62% 30.05 in 10.0 mi West 11.5 mph - N/A   Clear
6:35 AM 43.7 °F 37.7 °F 32.0 °F 63% 30.06 in 10.0 mi West 11.5 mph - N/A   Clear
6:55 AM 43.3 °F 37.7 °F 32.0 °F 64% 30.07 in 10.0 mi West 10.4 mph - N/A   Clear
7:15 AM 43.7 °F 38.1 °F 32.0 °F 63% 30.07 in 10.0 mi West 10.4 mph - N/A   Clear
7:35 AM 43.2 °F 37.0 °F 32.0 °F 65% 30.08 in 10.0 mi West 11.5 mph - N/A   Clear
7:55 AM 42.8 °F 37.5 °F 32.0 °F 66% 30.08 in 10.0 mi West 9.2 mph - N/A   Clear
8:15 AM 43.5 °F 37.9 °F 32.0 °F 64% 30.09 in 10.0 mi West 10.4 mph - N/A   Clear
8:35 AM 45.0 °F 39.3 °F 32.0 °F 60% 30.09 in 10.0 mi West 11.5 mph - N/A   Clear
8:55 AM 46.9 °F - 32.0 °F 56% 30.10 in 10.0 mi West 12.7 mph 18.4 mph N/A   Clear
9:15 AM 48.4 °F - 31.8 °F 53% 30.11 in 10.0 mi West 15.0 mph - N/A   Clear
9:35 AM 49.6 °F - 31.6 °F 50% 30.12 in 10.0 mi West 16.1 mph 23.0 mph N/A   Clear
9:55 AM 51.1 °F - 31.6 °F 47% 30.13 in 10.0 mi WNW 13.8 mph 23.0 mph N/A   Clear
10:15 AM 52.9 °F - 29.8 °F 41% 30.14 in 10.0 mi WNW 17.3 mph 25.3 mph N/A   Clear
10:35 AM 53.8 °F - 28.6 °F 38% 30.14 in 10.0 mi WNW 18.4 mph 26.5 mph N/A   Clear
10:55 AM 54.5 °F - 27.7 °F 36% 30.15 in 10.0 mi WNW 17.3 mph 26.5 mph N/A   Clear
11:15 AM 55.4 °F - 26.8 °F 33% 30.16 in 10.0 mi WNW 20.7 mph 27.6 mph N/A   Clear
11:35 AM 56.3 °F - 26.1 °F 31% 30.16 in 10.0 mi NW 21.9 mph 26.5 mph N/A   Clear
11:55 AM 57.2 °F - 23.9 °F 28% 30.17 in 10.0 mi WNW 15.0 mph 27.6 mph N/A   Clear
12:15 PM 58.3 °F - 23.7 °F 26% 30.17 in 10.0 mi WNW 20.7 mph 25.3 mph N/A   Clear
12:35 PM 58.6 °F - 22.6 °F 25% 30.18 in 10.0 mi WNW 17.3 mph 27.6 mph N/A   Clear
12:55 PM 59.2 °F - 22.8 °F 25% 30.18 in 10.0 mi WNW 20.7 mph 27.6 mph N/A   Clear
1:15 PM 59.7 °F - 24.1 °F 26% 30.17 in 10.0 mi WNW 19.6 mph 26.5 mph N/A   Clear
1:35 PM 59.7 °F - 24.1 °F 26% 30.17 in 10.0 mi NW 18.4 mph 24.2 mph N/A   Clear
1:55 PM 60.8 °F - 23.5 °F 24% 30.16 in 10.0 mi WNW 18.4 mph 24.2 mph N/A   Clear
2:15 PM 60.4 °F - 23.5 °F 24% 30.16 in 10.0 mi WNW 17.3 mph 23.0 mph N/A   Clear
2:35 PM 60.8 °F - 23.2 °F 24% 30.16 in 10.0 mi West 12.7 mph 20.7 mph N/A   Clear
2:55 PM 60.8 °F - 23.0 °F 23% 30.16 in 10.0 mi WNW 15.0 mph 25.3 mph N/A   Clear
3:15 PM 61.2 °F - 23.2 °F 23% 30.16 in 10.0 mi NW 18.4 mph 25.3 mph N/A   Clear
3:35 PM 61.0 °F - 22.1 °F 22% 30.16 in 10.0 mi NW 16.1 mph 23.0 mph N/A   Clear
3:55 PM 61.2 °F - 21.9 °F 22% 30.16 in 10.0 mi WNW 17.3 mph 23.0 mph N/A   Clear
4:15 PM 60.8 °F - 21.7 °F 22% 30.16 in 10.0 mi NW 16.1 mph - N/A   Clear
4:35 PM 60.1 °F - 21.0 °F 22% 30.16 in 10.0 mi NW 9.2 mph - N/A   Clear
4:55 PM 59.9 °F - 21.7 °F 23% 30.17 in 10.0 mi NW 12.7 mph 17.3 mph N/A   Clear
5:15 PM 60.6 °F - 22.3 °F 23% 30.17 in 10.0 mi NW 13.8 mph - N/A   Clear
5:35 PM 59.7 °F - 22.6 °F 24% 30.17 in 10.0 mi NW 10.4 mph - N/A   Clear
5:55 PM 59.2 °F - 22.5 °F 24% 30.18 in 10.0 mi NW 12.7 mph - N/A   Clear
6:15 PM 57.7 °F - 23.7 °F 27% 30.18 in 10.0 mi NW 5.8 mph - N/A   Clear
6:35 PM 54.7 °F - 27.3 °F 35% 30.19 in 10.0 mi NW 4.6 mph - N/A   Clear
6:55 PM 54.1 °F - 26.8 °F 35% 30.19 in 10.0 mi Calm Calm - N/A   Clear
7:15 PM 52.5 °F - 26.8 °F 37% 30.20 in 10.0 mi Calm Calm - N/A   Clear
7:35 PM 51.6 °F - 27.0 °F 38% 30.21 in 10.0 mi Calm Calm - N/A   Clear
7:55 PM 49.8 °F - 28.6 °F 44% 30.22 in 10.0 mi Calm Calm - N/A   Clear
8:15 PM 48.0 °F - 29.8 °F 49% 30.22 in 10.0 mi NNE 4.6 mph - N/A   Clear
8:35 PM 46.9 °F - 29.8 °F 51% 30.23 in 10.0 mi NNE 4.6 mph - N/A   Clear
8:55 PM 47.7 °F - 28.8 °F 48% 30.23 in 10.0 mi NE 3.5 mph - N/A   Clear
9:15 PM 48.2 °F - 27.7 °F 45% 30.24 in 10.0 mi NNE 4.6 mph - N/A   Clear
9:35 PM 47.8 °F - 27.5 °F 45% 30.25 in 10.0 mi NNE 4.6 mph - N/A   Clear
9:55 PM 46.8 °F - 27.9 °F 48% 30.25 in 10.0 mi NNE 4.6 mph - N/A   Clear
10:15 PM 46.0 °F 43.9 °F 28.2 °F 50% 30.26 in 10.0 mi NE 4.6 mph - N/A   Clear
10:35 PM 44.1 °F 42.5 °F 28.8 °F 55% 30.26 in 10.0 mi NE 3.5 mph - N/A   Clear
10:55 PM 43.0 °F - 29.3 °F 59% 30.26 in 10.0 mi Calm Calm - N/A   Clear
11:15 PM 41.2 °F - 29.5 °F 63% 30.27 in 10.0 mi Calm Calm - N/A   Clear
11:35 PM 40.5 °F - 31.3 °F 70% 30.28 in 10.0 mi Calm Calm - N/A   Clear
11:55 PM 39.0 °F - 32.0 °F 76% 30.28 in 10.0 mi Calm Calm - N/A   Clear